[[{"header":{"parameterUnit":"m.s-1","parameterCategory":1,"la1":30.2991,"la2":30.254,"lo1":-89.0895,"lo2":-89.0444,"dy":0.0017,"dx":0.0017,"nx":28,"ny":28,"refTime":"2025-07-22T03:00:00:Z","depth":0,"parameterNumber":2,"parameterNumberName":"U-component_of_WINDS"},"data":[0,0,0,0,0,0,0,0,0,0,0,0,0,0,0,0,0,0,0,0,0,0,0,0,0,0,0,0,0,0,0,0,0,0,0,0,0,0,0,0,0,0,0,0,0,0,0,0,0,0,0,0,0,0,0,0,0,0,2.1008,2.1008,0,2.1007,2.1007,2.1007,2.0945,2.0944,2.0942,2.0941,2.0941,2.0943,2.0944,0,0,0,0,0,0,0,0,0,0,0,0,0,2.0959,2.096,2.1008,2.1008,2.1008,2.1007,2.1007,2.1007,2.0946,2.0944,2.0942,2.094,2.0941,2.0943,2.0944,0,0,0,0,0,0,0,0,0,0,0,0,0,2.0972,2.0961,2.1008,2.0977,2.0974,2.1007,2.1007,2.1007,2.0946,2.0944,2.0941,2.0939,2.094,2.0942,2.0945,2.1007,0,0,2.0952,2.0953,0,0,0,0,0,0,0,0,2.0971,2.0973,2.0982,2.0979,2.0976,2.0974,2.099,2.1007,2.0947,2.0957,2.0941,2.0938,2.0954,2.0955,2.096,2.1007,2.1007,2.0952,2.0953,2.0954,2.0955,0,0,0,0,0,0,0,2.097,2.0973,2.1008,2.0982,2.0979,2.0964,2.0963,2.0993,2.0969,2.0956,2.0951,2.0952,2.0952,2.0958,2.096,2.1007,2.0952,2.0954,2.0955,2.0956,2.1107,2.111,0,0,0,0,0,0,2.0973,2.0973,2.1008,2.1008,2.0968,2.0967,2.0966,2.0977,2.0969,2.0965,2.0954,2.0949,2.0956,2.0957,2.096,2.1034,2.0954,2.0956,2.0958,2.1105,2.1108,2.1111,0,0,0,0,0,0,2.0972,2.0977,2.1008,2.0989,2.0992,2.097,2.0983,2.0978,2.0984,2.0967,2.0963,2.0964,2.0954,2.0957,2.0996,2.1033,2.0957,2.0959,2.1102,2.1106,2.1109,2.1182,0,0,0,0,0,0,2.0971,2.0977,2.1,2.099,2.0993,2.1044,2.0986,2.098,2.0988,2.0982,2.0976,2.0973,2.0952,2.0993,2.0998,2.1035,2.0961,2.1098,2.1103,2.1108,2.1176,2.1188,2.1198,0,0,0,0,0,2.097,2.102,2.1001,2.1006,2.1021,2.1046,2.1048,2.1022,2.0991,2.1015,2.1004,2.0973,2.1028,2.0998,2.1003,2.1041,2.1096,2.1102,2.1108,2.1171,2.1185,2.1197,0,0,0,0,0,0,2.1035,2.1018,2.0997,2.1046,2.1048,2.1035,2.1064,2.1038,2.1049,2.1043,2.1012,2.1011,2.1056,2.1052,2.1019,2.1102,2.1056,2.1064,2.1103,2.1116,2.1127,2.1127,2.0963,0,0,0,0,0,2.1055,2.1076,2.106,2.1105,2.1107,2.1086,2.1095,2.1076,2.1077,2.1077,2.1069,2.1072,2.109,2.1103,2.1118,2.1175,2.1174,2.1203,2.1214,2.1223,2.123,2.1262,2.1275,2.113,2.113,2.113,0,0,2.1097,2.1091,2.1106,2.1118,2.1117,2.1141,2.1087,2.1113,2.1131,2.1081,2.1119,2.1113,2.1114,2.1163,2.1184,2.1161,2.127,2.1231,2.1238,2.124,2.1269,2.1283,2.1295,2.1134,2.1134,2.1133,0,0,2.1186,2.1182,2.122,2.122,2.1219,2.1205,2.1214,2.1206,2.12,2.1237,2.1201,2.1222,2.1253,2.1255,2.1261,2.1352,2.1324,2.1358,2.1415,2.1446,2.1457,2.1468,2.1502,2.1514,2.1365,2.1365,2.1365,0,2.1238,2.1271,2.1242,2.1272,2.1279,2.1235,2.1274,2.1276,2.1281,2.1287,2.1261,2.13,2.1297,2.1347,2.137,2.1375,2.1386,2.1359,2.1458,2.1468,2.1477,2.1509,2.1522,2.1369,2.1368,2.1368,2.1368,0,2.1337,2.136,2.1391,2.1396,2.1407,2.1441,2.1418,2.1432,2.1412,2.1401,2.144,2.1435,2.145,2.146,2.144,2.1508,2.1494,2.1463,2.1417,2.1495,2.1525,2.1537,2.1375,2.1373,2.1372,2.1371,0,0,2.1467,2.1456,2.1468,2.1471,2.1468,2.1486,2.1518,2.1532,2.1546,2.155,2.1578,2.1606,2.1578,2.1585,2.1565,2.1592,2.1667,2.1558,2.1558,2.158,2.1743,2.1767,2.1782,2.1648,2.165,2.1652,2.1743,0,2.1554,2.1608,2.1584,2.1641,2.1664,2.1623,2.1651,2.1653,2.1643,2.1662,2.1651,2.1672,2.1633,2.1637,2.1662,2.1652,2.1699,2.1645,2.1675,2.1676,2.1677,2.1797,2.1822,2.1909,2.1755,2.1757,2.1758,0,2.1663,2.1672,2.1732,2.1726,2.1734,2.176,2.1772,2.1789,2.1791,2.1782,2.179,2.1765,2.1797,2.1751,2.1796,2.176,2.1771,2.1768,2.1771,2.1774,2.1723,2.1805,2.1936,2.195,2.1776,2.1774,2.1773,0,2.1754,2.1782,2.1822,2.1825,2.1818,2.1838,2.1836,2.1835,2.1845,2.1856,2.1862,2.1876,2.1885,2.1897,2.1876,2.1844,2.1926,2.1877,2.1921,2.1922,2.1941,2.194,2.2077,2.1945,2.1945,2.1945,2.1944,0,2.1855,2.1894,2.1863,2.1888,2.193,2.1902,2.1945,2.1939,2.1939,2.1962,2.1927,2.1951,2.1921,2.1942,2.1926,2.1968,2.1971,2.1966,2.1962,2.197,2.1971,2.1978,2.1972,2.1948,2.1947,2.1947,2.1946,0,2.1965,2.1946,2.1987,2.1977,2.1975,2.2008,2.2,2.2023,2.2011,2.2041,2.2047,2.2029,2.2051,2.2032,2.2053,2.2043,2.2098,2.2084,2.2098,2.2095,2.2141,2.2137,2.2288,2.2307,2.2161,2.2163,2.2164,0,2.2032,2.2061,2.2054,2.2067,2.2068,2.2089,2.2099,2.2073,2.2085,2.209,2.2113,2.2132,2.2147,2.2185,2.2175,2.2192,2.2179,2.2231,2.2182,2.219,2.2182,2.2182,2.2185,2.2241,2.2243,2.2244,2.2246,0,2.2153,2.2142,2.2158,2.2171,2.2185,2.2194,2.2201,2.2214,2.2186,2.2203,2.2225,2.2237,2.2259,2.228,2.2293,2.2292,2.2266,2.2261,2.2272,2.2282,2.229,2.2288,2.2127,2.2258,2.2257,2.2256,2.2255,2.2255,2.2244,2.2269,2.2268,2.2288,2.229,2.2297,2.2319,2.231,2.2328,2.2344,2.2327,2.2355,2.2357,2.2372,2.2375,2.2397,2.2376,2.2392,2.2396,2.2401,2.2409,2.2285,2.2399,2.2399,2.2399,2.2398,2.2398,0,2.2365,2.2363,2.2381,2.2392,2.2408,2.2379,2.2385,2.2401,2.2426,2.243,2.2445,2.2472,2.2492,2.2483,2.25,2.252,2.2509,2.2526,2.2525,2.2526,2.2426,2.2415,2.2535,2.2535,2.2535,2.2535,2.2535,2.2535,2.243,2.2471,2.246,2.2501,2.2499,2.2526,2.2532,2.2539,2.2542,2.2573,2.259,2.2583,2.2582,2.26,2.2618,2.2615,2.2624,2.2646,2.2639,2.2546,2.2533,2.252,2.251,2.2648,2.2648,2.2738,2.2739,2.2739]},{"header":{"parameterUnit":"m.s-1","parameterCategory":1,"la1":30.2991,"la2":30.254,"lo1":-89.0895,"lo2":-89.0444,"dy":0.0017,"dx":0.0017,"nx":28,"ny":28,"refTime":"2025-07-22T03:00:00:Z","depth":0,"parameterNumber":3,"parameterNumberName":"V-component_of_WINDS"},"data":[0,0,0,0,0,0,0,0,0,0,0,0,0,0,0,0,0,0,0,0,0,0,0,0,0,0,0,0,0,0,0,0,0,0,0,0,0,0,0,0,0,0,0,0,0,0,0,0,0,0,0,0,0,0,0,0,0,0,-1.9287,-1.9288,0,-1.9337,-1.9338,-1.9338,-1.9322,-1.9321,-1.932,-1.9319,-1.9371,-1.9373,-1.9375,0,0,0,0,0,0,0,0,0,0,0,0,0,-1.9179,-1.9181,-1.9287,-1.9288,-1.9288,-1.9337,-1.9338,-1.9338,-1.9322,-1.9321,-1.932,-1.9318,-1.937,-1.9373,-1.9375,0,0,0,0,0,0,0,0,0,0,0,0,0,-1.9227,-1.9182,-1.9287,-1.9286,-1.9287,-1.9337,-1.9338,-1.9339,-1.9323,-1.9321,-1.9319,-1.9318,-1.9369,-1.9372,-1.9376,-1.943,0,0,-1.9387,-1.9388,0,0,0,0,0,0,0,0,-1.9224,-1.9231,-1.9286,-1.9286,-1.9287,-1.9322,-1.9319,-1.9369,-1.9323,-1.9309,-1.9319,-1.9317,-1.9356,-1.936,-1.9373,-1.9433,-1.9435,-1.9387,-1.9389,-1.9391,-1.9392,0,0,0,0,0,0,0,-1.9221,-1.9229,-1.9307,-1.9287,-1.9287,-1.9284,-1.9289,-1.9328,-1.9341,-1.931,-1.9309,-1.9315,-1.9356,-1.937,-1.9374,-1.9436,-1.9387,-1.939,-1.9392,-1.9394,-1.9544,-1.9545,0,0,0,0,0,0,-1.9217,-1.9226,-1.9305,-1.9308,-1.9251,-1.9287,-1.9293,-1.9312,-1.934,-1.9343,-1.9316,-1.9314,-1.9364,-1.937,-1.9376,-1.9442,-1.9391,-1.9394,-1.9396,-1.9542,-1.9544,-1.9546,0,0,0,0,0,0,-1.9215,-1.9224,-1.9303,-1.9267,-1.9277,-1.9291,-1.9313,-1.9314,-1.9328,-1.9345,-1.9347,-1.9328,-1.9363,-1.9371,-1.9417,-1.9444,-1.9396,-1.9399,-1.954,-1.9542,-1.9545,-1.9575,0,0,0,0,0,0,-1.9212,-1.9224,-1.9244,-1.9268,-1.9279,-1.9343,-1.9314,-1.9316,-1.9334,-1.9332,-1.9357,-1.936,-1.9363,-1.9412,-1.9421,-1.9448,-1.9402,-1.9537,-1.9541,-1.9544,-1.9572,-1.9579,-1.9584,0,0,0,0,0,-1.9208,-1.9251,-1.9245,-1.9255,-1.9305,-1.9345,-1.9351,-1.9354,-1.9336,-1.9357,-1.9369,-1.9359,-1.9439,-1.9417,-1.9426,-1.9455,-1.9536,-1.954,-1.9544,-1.9569,-1.9577,-1.9584,0,0,0,0,0,0,-1.923,-1.9254,-1.9248,-1.9299,-1.932,-1.9342,-1.9369,-1.9362,-1.9389,-1.9385,-1.9388,-1.9394,-1.9441,-1.9453,-1.9427,-1.951,-1.9485,-1.9491,-1.9501,-1.9509,-1.9515,-1.9512,-1.9405,0,0,0,0,0,-1.9241,-1.9271,-1.929,-1.9334,-1.9344,-1.9355,-1.9372,-1.9373,-1.9394,-1.9403,-1.9418,-1.944,-1.947,-1.949,-1.9519,-1.9573,-1.9579,-1.9598,-1.9604,-1.9609,-1.9615,-1.9646,-1.9655,-1.9559,-1.9559,-1.9559,0,0,-1.9263,-1.928,-1.9299,-1.9338,-1.9355,-1.9387,-1.9362,-1.9397,-1.9421,-1.9409,-1.9453,-1.9465,-1.9489,-1.954,-1.9563,-1.9551,-1.9643,-1.9615,-1.9618,-1.9621,-1.9651,-1.966,-1.9668,-1.9562,-1.9562,-1.9561,0,0,-1.9321,-1.9336,-1.9374,-1.9391,-1.9416,-1.9423,-1.9432,-1.9455,-1.9463,-1.9507,-1.9499,-1.9528,-1.958,-1.9598,-1.9614,-1.968,-1.9672,-1.9689,-1.9722,-1.9752,-1.976,-1.9766,-1.9791,-1.98,-1.9694,-1.9695,-1.9695,0,-1.9346,-1.9393,-1.9395,-1.9431,-1.9449,-1.9439,-1.9478,-1.9495,-1.9528,-1.9541,-1.9527,-1.9593,-1.9608,-1.9664,-1.968,-1.9693,-1.9705,-1.9686,-1.9758,-1.9765,-1.9772,-1.9795,-1.9804,-1.9696,-1.9696,-1.9696,-1.9696,0,-1.9423,-1.9457,-1.9484,-1.9517,-1.9538,-1.9575,-1.9583,-1.9605,-1.9603,-1.9612,-1.9658,-1.9677,-1.971,-1.9723,-1.9722,-1.9779,-1.9771,-1.9758,-1.9733,-1.9783,-1.9805,-1.9814,-1.9699,-1.9699,-1.9698,-1.9697,0,0,-1.9496,-1.9529,-1.954,-1.9555,-1.9582,-1.9608,-1.9645,-1.9677,-1.9696,-1.972,-1.9752,-1.9796,-1.9785,-1.9803,-1.9804,-1.983,-1.9882,-1.9814,-1.9815,-1.9827,-1.9948,-1.9958,-1.9968,-1.9877,-1.9879,-1.988,-1.9946,0,-1.9557,-1.9622,-1.9625,-1.9685,-1.9716,-1.9707,-1.974,-1.9761,-1.977,-1.9798,-1.9808,-1.984,-1.9822,-1.9833,-1.9859,-1.987,-1.9907,-1.9866,-1.9908,-1.9909,-1.9903,-1.998,-1.9991,-2.0052,-1.9955,-1.9956,-1.9957,0,-1.9636,-1.9662,-1.9725,-1.9749,-1.9762,-1.9791,-1.9822,-1.9848,-1.9872,-1.9877,-1.9898,-1.9895,-1.9934,-1.9907,-1.9962,-1.9934,-1.9951,-1.996,-1.9962,-1.9967,-1.9937,-1.9988,-2.0071,-2.0081,-1.997,-1.9969,-1.9968,0,-1.9684,-1.9735,-1.978,-1.9793,-1.9821,-1.9842,-1.9855,-1.9877,-1.9896,-1.9923,-1.9936,-1.9967,-1.9984,-2.0008,-2.0014,-1.9994,-2.0069,-2.0042,-2.0075,-2.0075,-2.0091,-2.009,-2.018,-2.0101,-2.0101,-2.0101,-2.0101,0,-1.9752,-1.9791,-1.9802,-1.9829,-1.9873,-1.9876,-1.992,-1.9931,-1.9951,-1.9981,-1.9975,-2.0004,-2.001,-2.004,-2.0044,-2.0089,-2.0097,-2.0103,-2.0104,-2.0104,-2.0103,-2.0116,-2.0112,-2.0103,-2.0103,-2.0102,-2.0102,0,-1.9814,-1.9822,-1.987,-1.9893,-1.99,-1.9932,-1.9952,-1.9978,-1.9987,-2.0025,-2.0034,-2.0048,-2.0083,-2.0091,-2.0133,-2.0136,-2.019,-2.0186,-2.0182,-2.0182,-2.0214,-2.0212,-2.0316,-2.0331,-2.0241,-2.0242,-2.0242,0,-1.9857,-1.9887,-1.9913,-1.9933,-1.9947,-1.9979,-1.9999,-2.0003,-2.0024,-2.0054,-2.0078,-2.0112,-2.014,-2.0196,-2.021,-2.0242,-2.024,-2.0274,-2.0245,-2.0244,-2.0242,-2.0241,-2.0244,-2.028,-2.0281,-2.0282,-2.0283,0,-1.9934,-1.9936,-1.9965,-1.9996,-2.002,-2.0045,-2.0068,-2.0085,-2.0092,-2.0117,-2.0152,-2.0174,-2.0217,-2.0251,-2.0284,-2.0298,-2.0292,-2.0292,-2.0301,-2.0302,-2.0299,-2.0302,-2.0198,-2.029,-2.0289,-2.0288,-2.0288,-2.0288,-1.9988,-2.0015,-2.0038,-2.0071,-2.0089,-2.0111,-2.0137,-2.0149,-2.0179,-2.0214,-2.0215,-2.0254,-2.0278,-2.0321,-2.0337,-2.0368,-2.0358,-2.0371,-2.0375,-2.0378,-2.0382,-2.0293,-2.0374,-2.0374,-2.0373,-2.0373,-2.0373,0,-2.0065,-2.008,-2.011,-2.0143,-2.0169,-2.0161,-2.0186,-2.0209,-2.0244,-2.0266,-2.0294,-2.0335,-2.0369,-2.0386,-2.0419,-2.0441,-2.044,-2.045,-2.0449,-2.0453,-2.0388,-2.0377,-2.0451,-2.0451,-2.0451,-2.0451,-2.0451,-2.0451,-2.0109,-2.0154,-2.0159,-2.0214,-2.0228,-2.0266,-2.0282,-2.0303,-2.0321,-2.0367,-2.0395,-2.0406,-2.0427,-2.0462,-2.0493,-2.0497,-2.051,-2.0522,-2.0525,-2.0465,-2.0457,-2.045,-2.0439,-2.0525,-2.0525,-2.0587,-2.0587,-2.0588]}]]